Race Results for
Prescott Punisher
Prescott, AZ
(Event Information)
View By:
Cross Country on 04/04/2009

Note: Ranking points are NOT upgrade points. An explanation of ranking points can be found here.


Men - Single Speed Novice

 Place Points NameCity, StateTime USAC #BibTeam
1Chad Kasmar   1:28:53  440 
2487.83Matthew Pacheco   Flagstaff, AZ1:34:38 80993  113 
3504.86Robert McNulty   Phoenix, AZ1:36:57 125724  476 
4Jose Avila   1:42:33  109 
5538.92Terry Jasper   Glendale, AZ1:42:53 128084  44 
6555.95Guy Bell   Glendale, AZ1:48:46 142507  149 
7Octavio Real   1:48:48  510 
8Luke Currell   1:52:35  1070 

Men - Single Speed Advanced

 Place Points NameCity, StateTime USAC #BibTeam
1Scott Countryman   Flagstaff, AZ2:03:27 258025  539 
2Linden Lane   Flagstaff, AZ2:20:57 202511  612 
DNFGiorgio Filippinetti   Prescott, AZ 274592  DNF 

Men - Rock Crusher

 Place Points NameCity, StateTime USAC #BibTeam
1Mike Ciasca   1:48:32  192 
2Jamie Seegert   1:58:52  648 
3560.00Kurt Mindy   Anthem, AZ2:01:59 166882  117 
4570.00Keith Wilson   Tempe, AZ2:02:45 220715  661 
5Nicholas Brehm   2:14:16  606 
6Jonathan Devich   2:20:36  1030 
DNFTony Amos   DNF  404 
DNFHarry Benton   DNF  156 

Men - Marathon

 Place Points NameCity, StateTime USAC #BibTeam
1440.73Brian Bennett   Phoenix, AZ3:28:28 138282  43 
2452.21Robert LaRoche   Scottsdale, AZ3:42:18 20390  454 
3463.69Kyle Kraakevik   Scottsdale, AZ3:49:47 232125  277 
4Chris Yeager   3:50:50  1056 
5Chuck Wheeler   3:51:10  642 
6498.13Arthur MacFarland   Cave Creek, AZ3:54:40 79108  466 
7509.61Michael O'Donnell   Flagstaff, AZ3:55:29 212160  492 
8521.09Lane Sanders   Gilbert, AZ4:00:40 196626  74 
9532.57Clint Hosman   Mesa, AZ4:04:42 182454  42 
10544.05Robert Decot   Flagstaff, AZ4:12:25 9024  186 
11555.53Brandon Hedberg   Flagstaff, AZ4:25:00 240235  428 
12567.01Mark Wille   Flagstaff, AZ4:28:13 196295  118 
13Steve Larson   4:49:26  455 
14589.97Pete Fioravanti   Scottsdale, AZ4:55:23 165635  193 
DNFJoe Sabijon   DNF  1058 
DNFTom Crosetti   Mesa, AZDNF 156147  97 
DNFChris Capages   Phoenix, AZDNF 151400  199 
DNFChris Wilkens   Flagstaff, AZDNF 149001  1054 

Men - Cat 3 - Junior - 1-10

 Place Points NameCity, StateTime USAC #BibTeam
1David Polley   Peoria, AZ0:12:03 271015  297 
2IZAAK WOOD   0:20:07  1055 

Men - Cat 3 - Junior - 11-12

 Place Points NameCity, StateTime USAC #BibTeam
1532.65Brandon McNulty   Phoenix, AZ0:17:57 275694  298 
2DENNY DROTZMANN   0:19:11  288 
3542.15Erowynn Maul-Latham   Flagstaff, AZ0:20:01 262632  315 
4KEAGAN WEBSTER   0:22:26  316 
5JASON CHRISTLEY   0:23:09  170 
6RYAN DAUENHAUER   0:24:11  184 
7CHASE FOSTER   0:24:47  269 
8BEAU MUNGER   0:27:45  670 
9BRIDGES HUNTER   0:28:00  310 
10Westley Grove   0:33:21  300 
11ROSS LIVELY   0:35:16  305 

Men - Cat 3 - Junior - 13-14

 Place Points NameCity, StateTime USAC #BibTeam
1490.74Garrett Chott   Gilbert, AZ1:12:42 286463  294 
2503.41Zachary Edwards   Flagstaff, AZ1:18:07 219148  284 
3516.08Jordon Lindberg   Phoenix, AZ1:30:17 256972  271 
4Matthew Gylsson   1:33:34  410 
5Lukas Cronin   1:36:24  303 
6Logan Wallace   2:03:39  1051 
7Jordan Camoriano   2:46:31  1028 

Men - Cat 3 - Junior - 15-18

 Place Points NameCity, StateTime USAC #BibTeam
1Nick Key   1:06:56  443 
2Davis Hoyt   1:09:27  292 
3459.90Ian Keller   Gilbert, AZ1:11:02 262213  1064 
4476.16Kenny Polley   Peoria, AZ1:12:35 255203  274 
5John Ross Peckardt   1:19:42  94 
6Adam Humphrey   1:23:33  323 
7Derek Larson   1:31:24  261 
8Austin Hunter   1:57:49  312 
9Alex Leblanc   1:58:07  1038 
10Larry Bieneman   1:59:38  1063 
11Dallin Godfrey   2:12:17  324 

Men - Cat 3 - Senior - 19-29

 Place Points NameCity, StateTime USAC #BibTeam
1Jason Hall   1:02:57  419 
2Dan Peckardt   1:03:25  95 
3Blaine Clark   1:04:55  564 
4Robert Rose   1:07:29  71 
5Skyler O'neil   2:04:50  1045 
DNFMiguel Carrazco   DNF  528 

Men - Cat 3 - Masters - 30-39

 Place Points NameCity, StateTime USAC #BibTeam
1540.00TRAPPER STEINLE   Littleton, CO1:00:18 288416  1049 
2Ryan Mortensen   1:01:59  483 
3Rob Griffin   1:09:21  1065 
4548.82Stephen Novy   Boston, MA1:10:23 259179  489 
5Kelly Hartle   1:11:08  38 
6Alan Stephenson   1:12:39  588 
7Noel Gomez   1:13:51  36 
8Nick Nocella   1:14:33  64 
9Michael Sainz   1:19:38  72 
10Finn Miskvil   1:19:39  1061 
11Jeff Welch   1:20:22  1052 
12572.34David DeNitto   Phoenix, AZ1:21:44 257745  188 
13Jeffrey Barber   1:25:44  561 
14Branden Jordan   1:28:26  1066 
15Brannen Maples   1:32:14  59 
16Jeff Gardner   1:44:36  1033 
17Chad Mason   1:49:22  1041 
18Jacob Shumatr   2:10:31  77 
DNFTerry Staten   DNF  78 
DNFZac Seasly   DNF  522 

Men - Cat 3 - Masters - 40-49

 Place Points NameCity, StateTime USAC #BibTeam
1Mike Park   1:07:13  75 
2Brandon Rumpf   1:08:21  516 
3Paul Dellorco   1:11:51  187 
4Steven Van Coillie   1:12:11  1050 
5Vern Peterson   1:17:46  115 
6Patrick Kivin   1:18:20  672 
7Bill Lindberg   1:19:04  135 
8Mike Tisdale   1:23:29  129 
9William Pence   1:24:58  1046 
10Roy Key   1:26:32  442 
11Mike Sanchez   1:26:44  637 
12Damon Glysson   1:32:05  409 
13Eric Olson   1:34:03  493 
14Bruce Lagman   1:43:27  452 
15583.68Ken Segel   Phoenix, AZ1:52:48 265120  523 
16John Peckardt   1:54:05  93 
17Vincent Scarfo   1:55:38  1047 
DNFTimothy Gillis   DNF  667 
DNFRon Alderfer   DNF  1024 
DNFDennis Low   DNF  1039 

Men - Cat 3 - Masters - 50-59

 Place Points NameCity, StateTime USAC #BibTeam
1Terry Sontag   1:17:25  586 
2Ralph Jennings   1:20:15  128 
3Tony Bartholoma   1:23:15  1026 
4561.42Joseph Miller   Phoenix, AZ1:29:14 255705  479 
5Skeeter Schulz   1:38:36  520 
6Reggie Currie   1:51:27  30 
7Tim Spicer   1:55:22  602 
8Kirk Fleming   2:01:02  669 
DNFJay Stewart   DNF  1062 

Men - Cat 2 - Junior - 1-18

 Place Points NameCity, StateTime USAC #BibTeam
1389.77Cypress Gorry   Brevard, NC1:27:01 219681  267 
2410.16TYLER SANDOVAL   Flagstaff, AZ1:34:33 272774  272 
3430.55Colton Taylor   Mesa, AZ1:36:49 271968  263 
4Kyle Willett   1:36:58  276 
5Travis Glysson   1:38:14  408 
6Tanner Leslie   1:47:47  296 
7Zach Ward   1:56:27  546 
DNFEvan Brody   DNF  320 

Men - Cat 2 - Senior - 19-29

 Place Points NameCity, StateTime USAC #BibTeam
1Wade Phillips   1:27:35  499 
2Brian Trader   1:38:28  86 
3Rob Ferrin   1:46:48  1031 

Men - Cat 2 - Master - 30-39

 Place Points NameCity, StateTime USAC #BibTeam
1513.44Brian Barrett   Mesa, AZ1:26:47 185409  147 
2518.54Kenneth Allen   Mesa, AZ1:27:33 282090  403 
3Craig Gregory   1:32:08  103 
4Nathan Andrews   1:32:39  145 
5James Gerber   1:32:40  35 
6Zach Radu   1:33:00  506 
7544.04Jonathon Bird   Phoenix, AZ1:33:36 338656  151 
8Jacob Phillips   1:33:46  652 
9Eric Gust   1:35:59  417 
10559.34Chad Sheirbon   Phoenix, AZ1:37:58 247041  598 
11Josh Person   1:39:58  101 
12Tim Misavage   1:45:40  481 
13Rodrigo Rada   1:46:46  614 
14579.74Brian Murphy   Goodyear, AZ1:48:06 256483  62 
15Tom Stack   1:50:13  587 
16Greg Trone   1:50:28  1069 
DNFSonny Morgan   DNF  525 
DNFDavid Guenthardt   DNF  1035 

Men - Cat 2 - Master - 40-49

 Place Points NameCity, StateTime USAC #BibTeam
1472.00Lorne Mckay   Scottsdale, AZ1:31:13 271389  655 
2477.34Luke Dale   Gilbert, AZ1:32:51 252667  608 
3482.68Grant Taylor   Mesa, AZ1:37:22 210372  535 
4Jeffry Hallums   1:37:24  610 
5John Foster   1:38:10  401 
6498.70Kirk Damron   Phoenix, AZ1:40:27 156876  1029 
7Dean Hevithorn   1:41:23  41 
8509.38Brian Roberts   Goodyear, AZ1:42:14 93633  514 
9514.72Charles Bruni   Flagstaff, AZ1:43:54 288078  158 
10520.06Jim Chott   Gilbert, AZ1:44:06 286462  169 
11Mike Haas   1:44:28  37 
12530.74Kenneth Koch   Dewey, AZ1:45:03 255654  1037 
13Keith Hubbard   1:47:52  432 
14Warren Gibb   1:51:48  1034 
15546.76Mark Venti   Mesa, AZ1:53:02 149570  541 
16552.10Noel Garcia   Phoenix, AZ1:55:21 177810  558 
DNFGreg Carmichael   DNF  108 
DNFDavid Craw   Mesa, AZDNF 271720  29 
DNFGeorge Sperry   DNF  120 
DNFDavid Peck   DNF  125 
DNFKen Ross   DNF  515 
DNFMichael Vines   DNF  542 

Men - Cat 2 - Master - 50-59

 Place Points NameCity, StateTime USAC #BibTeam
1Rod Andrade   1:39:22  630 
2Mike Hartman   1:51:11  426 
3Steve Gross   1:53:43  415 
4564.99Michael Bolding   Scottsdale, AZ1:54:14 4129  152 
5573.32Anson Gilbert   Mesa, AZ2:01:33 13219  407 
6581.65Michael Cronin   Cave Creek, AZ2:15:13 289037  28 
7Al Gordell   2:32:45  663 

Men - Cat 2 - Master - 60-99

 Place Points NameCity, StateTime USAC #BibTeam
1540.00Stephen Hughes   Scottsdale, AZ1:47:36 141111  433 
2Douglas Brown   1:59:59  157 
3573.34Robert McDermott   Goodyear, AZ2:14:08 255410  471 
4590.01David Jordan   Taylor, AZ3:06:24 18270  133 

Men - Cat 1 - Junior - 1-18

 Place Points NameCity, StateTime USAC #BibTeam
1369.26Daniel Conley   Payson, AZ1:52:06 251389  273 
2457.72Kallan Creager   Queen Creek, AZ2:00:13 255030  281 
3546.18Sam Gross   Cave Creek2:04:46 292354  414 

Men - Cat 1 - Senior - 19-29

 Place Points NameCity, StateTime USAC #BibTeam
1373.88Zachary Keller   Mesa, AZ1:49:39 257387  48 
2413.11Michael Cronin   Tempe, AZ1:50:02 177765  181 
3452.34Austin Anliker   Flagstaff, AZ2:01:08 282379  1025 
4491.57Patrick Wiatrolik   Clarkdale, AZ2:05:00 245390  623 
5530.80Charles Whitney   Gallup, NM2:21:54 225646  1053 
DNFRyan Geiger   Flagstaff, AZDNF 258285  293 

Men - Cat 1 - Masters - 30-39

 Place Points NameCity, StateTime USAC #BibTeam
1495.70Thomas Faeh   Flagstaff, AZ1:50:00 181963  650 
2502.80Robert Shaver   El Paso, TX1:53:09 56061  76 
3509.90Zach Stanford   Sedona, AZ1:54:51 192062  527 
4517.00Kyle Akin   Tucson, AZ1:55:43 203522  138 
5524.10Timothy Allen   Tucson, AZ1:56:09 1440  139 
6531.20Jerrad Cooper   Flagstaff, AZ1:59:18 140267  537 
7538.30Gerard Prosnier   Scottsdale, AZ2:00:37 142188  1060 
8545.40Benji Kozuch   Tucson, AZ2:04:24 258737  570 
9552.50Colby Moeller   Tucson, AZ2:04:55 132047  482 
10559.60Edwin Escamilla   Mexico City2:08:55 248032  196 
11566.70Jason Lohman   Prescott Valley, AZ2:17:45 21472  461 
DNFChris Latham   Flagstaff, AZDNF 20460  54 
DNFMike Wimbush   Phoenix, AZDNF 285946  553 

Men - Cat 1 - Masters - 40-49

 Place Points NameCity, StateTime USAC #BibTeam
1469.75Daryll McKenzie   Marana, AZ1:54:21 138171  475 
2476.97Daniel De Mos   Tiburon, CA1:56:39 244512  185 
3484.19Eric Lynch   Phoenix, AZ1:56:58 263726  464 
4491.41Craig Raney   Lake Havasu City, AZ1:57:19 138202  508 
5498.63Kenneth Kimble   Scottsdale, AZ1:58:50 289034  444 
6John Shumaker   2:02:59  617 
7513.07Daniel King   Phoenix, AZ2:04:22 154515  665 
8520.29Keith Koller   Yuma, AZ2:05:06 19606  448 
9527.51Michael Perry   Scottsdale, AZ2:07:00 27806  497 
10534.73Carlos Zamora   Phoenix, AZ2:10:15 52255  557 
11541.95Chris Grove   Flagstaff, AZ2:12:07 14295  416 
DNFManny Ortiz   Waddell, AZDNF 230172  494 

Men - Cat 1 - Masters - 50-59

 Place Points NameCity, StateTime USAC #BibTeam
1513.15Wayne Gorry   Payson, AZ2:01:49 13741  91 
2523.11Keith Tomei   Tucson, AZ2:07:25 40955  538 
3533.07John Camoriano   Mesa, AZ2:11:31 254809  671 
4543.03Robert Gooch   Flagstaff, AZ2:25:17 196289  411 
5552.99Kevin Quigley   Flagstaff, AZ2:25:25 175298  505 
6562.95Alexander Koss   Flagstaff, AZ2:26:42 236463  449 
DNFMichael Whitehead   Scottsdale, AZDNF 289036  548 

Men - Pro

 Place Points NameCity, StateTime USAC #BibTeam
1360.76Scott Keller   Sedona, AZ2:10:25 125723  
2372.36Lance Runyan   Mesa, AZ2:10:28 201139  
3383.96Kamden Reedy   Mesa, AZ2:12:02 155036  
4395.56Jeff Herrera   Tempe, AZ2:13:24 210732  
5407.16Tim Allen   Golden, CO2:13:34 161831  20 
6418.76Tim Bolton   Tucson, AZ2:14:13 117086  1067 
7430.36Jason Sager   Ogden, UT2:14:24 31059  1068 
8441.96Benjamin Webster   Mesa, AZ2:14:35 211019  
9453.56Kyle Reedy   Mesa, AZ2:17:07 195891  16 
10465.16Eric Salstrand   Phoenix, AZ2:17:13 176476  14 
11476.76Christopher Suter   Flagstaff, AZ2:19:20 194778  
12488.36Randall Jacobs   Brighton, MA2:19:31 266868  1036 
13499.96Rene Ortega   Tucson, AZ2:20:30 127318  13 
14Chewy Aitken   2:21:40  19 
15523.16Benjamin Sullivan   Missoula, MT2:22:11 178006  15 
16534.76Christopher Hull   Flagstaff, AZ2:23:58 187518  11 
17546.36Domenico Futia   Maple Valley, WA2:24:22 176687  17 
18557.96John Sawasky   Flagstaff, AZ2:27:37 80638  
19569.56Rich Weis   Gilbert, AZ2:32:29 57466  674 
20581.16Joshua Powers   Phoenix, AZ2:33:55 91975  634 
DNFTom O'Brien   Scottsdale, AZDNF 270662  12 
DNFJeffrey Harris   Sedona, AZDNF 224718  21 

Women - Single Speed

 Place Points NameCity, StateTime USAC #BibTeam
1Janet Kerby   2:01:51  441 
2Anne Thames-real   2:25:37  536 

Women - Marathon

 Place Points NameCity, StateTime USAC #BibTeam
1Jeri Ben-horin   4:20:04  604 
2Agnes Drogi   4:20:05  1057 
3Beth Steen   4:32:53  79 
4Lori Wheeler   4:45:06  1059 

Women - Cat 3 - Junior - 1-10

 Place Points NameCity, StateTime USAC #BibTeam
1JESSICA MILLER   0:11:37  1042 
2JORDAN HUNTER   0:11:43  311 
3HAILEY NEEDHAM   0:15:58  666 

Women - Cat 3 - Junior - 11-12

 Place Points NameCity, StateTime USAC #BibTeam
1OLILVIA AUSTIN   0:12:44  146 
2TESS SIEMENS   0:16:37  301 
3LILY PUTMAN   0:16:38  313 
4MIRANDA NEEDHAM   0:20:57  574 

Women - Cat 3 - Junior - 13-14

 Place Points NameCity, StateTime USAC #BibTeam
1MARA LEAKE   0:20:47  283 
2AMBER STILWELL   0:22:32  531 
3LAUREN REAL   0:31:45  509 

Women - Cat 3 - Junior - 15-18

 Place Points NameCity, StateTime USAC #BibTeam
1521.48Myia Wood   Mesa, AZ1:29:49 256810  262 
2Celeste (p-nut) Garcia   1:42:28  282 
3Allie Leslie   1:54:45  287 
4Mandie Cupp   1:54:53  302 
5Ashley Stilwell   2:13:31  532 
6Kyia Lively   3:02:57  304 

Women - Cat 3 - Masters - 19-39

 Place Points NameCity, StateTime USAC #BibTeam
1Cydney Rumpf   1:26:10  517 
2Erin Huizen   1:29:05  626 
3560.00Angie Nocella   Surprise, AZ1:40:44 288246  65 
4Jessa Stilwell   1:47:08  533 
5Aubrey Garcia   2:07:32  286 
6Krista Manus   2:51:55  468 
DNFCheryl Ekstrom   Tucson, AZdnf 142179  195 

Women - Cat 3 - Master - 40-49

 Place Points NameCity, StateTime USAC #BibTeam
1Deborah Huntley   1:53:14  436 
2Susanne Cox   2:04:32  26 
3Zoe Cohen   2:17:57  173 

Women - Cat 2 - Masters - 19-39

 Place Points NameCity, StateTime USAC #BibTeam
1Tina Stocking   1:57:59  603 
2501.59Kelly McFall   Flagstaff, AZ2:00:41 218180  472 
3Pam Lowie   2:21:13  462 
4Elaine Seasly   2:49:50  521 
5Rachel Yellowhair-Hicks   2:52:56  556 

Women - Cat 2 - Master - 40-49

 Place Points NameCity, StateTime USAC #BibTeam
1Tammy Begler   2:11:56  148 
2Wendy Macfarland   2:17:49  465 
3Joanne Geiger   2:46:13  406 
4Liane Ehrich   2:57:59  194 
5Lisa Pivin   3:30:38  500 
DNFAnita Switzer   Flagstaff, AZDNF 215551  110 
DNFJanet Capages   Phoenix, AZDNF 141234  163 

Women - Cat 1 - Masters - 19-39

 Place Points NameCity, StateTime USAC #BibTeam
1534.22Amber Naughton   Flagstaff, AZ1:49:25 87716  656 
2552.81Katie Monahan   Carbondale, CO1:49:59 120538  1043 
3571.40Jennifer Pullen   Tucson, AZ1:58:12 129388  67 
4589.99Jennifer Camoriano   Mesa, AZ1:58:24 254808  162 

Women - Cat 1 - Master - 40-49

 Place Points NameCity, StateTime USAC #BibTeam
1470.40Sue Rawley   Flagstaff, AZ1:53:13 29243  114 
2530.20Deborah Martin-Wille   Flagstaff, AZ2:00:37 196287  119 
3590.00Stephanie Hawthorne   Flagstaff, AZ2:13:26 275692  427 

Women - Pro

 Place Points NameCity, StateTime USAC #BibTeam
1456.56Sara Stanford   Prescott, AZ2:13:38 210728  18 
2521.98Jennifer Sica   Flagstaff, AZ2:24:40 172806  
3587.40Christina Betz   Phoenix, AZ2:33:38 210738  601 

Report missing or incorrect license numbers

Volkswagen
SpyShimanoSierra NevadaBonk BreakerUSACDF
UCI USA Cycling is the official governing body for all disciplines of competitive cycling in the United States. The 501c3, membership-based organization aims both to achieve sustained success in international cycling competition and to grow competitive cycling in America while delivering an exceptional customer experience.
View Children's Online Privacy Protection Policy
US Olympic Committee